Skip Page Navigation
NASA JPL Caltech
NASA Logo - Jet Propulsion Laboratory + View the NASA Portal
+ Center for Near-Earth Object Studies
JPL Home Earth Solar System Stars & Galaxies Technology
JPL Solar System Dynamics
BODIES ORBITS EPHEMERIDES TOOLS PHYSICAL DATA DISCOVERY FAQ SITE MAP
JPL Small-Body Database Browser
Search: [ help ]  
351267 (2004 RT192)
Classification: Main-belt Asteroid          SPK-ID: 2351267
Ephemeris | Orbit Diagram | Orbital Elements | Mission Design | Physical Parameters | Discovery Circumstances ]

[ show orbit diagram ]
Orbital Elements at Epoch 2459396.5 (2021-Jul-01.0) TDB
Reference: JPL 19 (heliocentric ecliptic J2000)
 Element Value Uncertainty (1-sigma)   Units 
e .2293463711605216 5.8374e-08  
a 2.405111295114303 1.1806e-08 au
q 1.853507747342655 1.3917e-07 au
i 4.093608479469584 5.8798e-06 deg
node 307.7202037826097 7.0737e-05 deg
peri 46.52442691099075 7.1677e-05 deg
M 185.7584244721536 1.0388e-05 deg
tp 2460055.902337540831
(2023-Apr-21.40233754)
4.1346e-05 TDB
period 1362.389204732377
3.73
1.0032e-05
2.747e-08
d
yr
n .26424167099204 1.9457e-09 deg/d
Q 2.95671484288595 1.4514e-08 au
  Orbit Determination Parameters
   # obs. used (total)      350  
   data-arc span      6064 days (16.60 yr)  
   first obs. used      2004-08-11  
   last obs. used      2021-03-19  
   planetary ephem.      DE441  
   SB-pert. ephem.      SB441-N16  
   condition code      0  
   norm. resid. RMS      .49617  
   source      ORB  
   producer      Otto Matic  
   solution date      2021-Jul-09 06:41:03  

Additional Information
 Earth MOID = .850412 au 
 Jupiter MOID = 2.49757 au 
 T_jup = 3.484 
[ show covariance matrix ]

Ephemeris | Orbit Diagram | Orbital Elements | Mission Design | Physical Parameters | Discovery Circumstances ]

Physical Parameter Table
Parameter Symbol Value Units Sigma Reference Notes
absolute magnitude H 17.21   n/a MPCxxxxx  

351267 (2004 RT192)          Discovered 2004-Sep-10 by LINEAR at Socorro
Reference: 20130127/Numbers.arcLast Updated: 2013-01-31
Ephemeris | Orbit Diagram | Orbital Elements | Mission Design | Physical Parameters | Discovery Circumstances ]
ABOUT SSD CREDITS/AWARDS PRIVACY/COPYRIGHT GLOSSARY LINKS
FirstGov 2021-Aug-03 12:16 UT
(server date/time)  
NASA Home Page
Site Manager:   Ryan S. Park
Webmaster  Alan B. Chamberlin